Time,TemperatureF,DewpointF,PressureIn,WindDirection,WindDirectionDegrees,WindSpeedMPH,WindSpeedGustMPH,Humidity,HourlyPrecipIn,Conditions,Clouds,dailyrainin,SoftwareType,DateUTC
2013-09-25 00:00:00,80.0,75.0,29.76,SE,140,14.0,15.0,84,-99.99,,,-99.99,,2013-09-25 05:00:00,
2013-09-25 00:43:00,80.0,75.0,29.76,SE,140,14.0,15.0,84,-99.99,,,-99.99,,2013-09-25 05:43:00,
2013-09-25 00:53:00,80.0,75.0,29.76,SE,140,14.0,15.0,84,-99.99,,,-99.99,,2013-09-25 05:53:00,
2013-09-25 01:00:00,81.0,76.0,29.76,SE,130,5.0,6.0,86,-99.99,,,-99.99,,2013-09-25 06:00:00,
2013-09-25 01:42:00,81.0,76.0,29.76,SE,130,5.0,6.0,86,-99.99,,,-99.99,,2013-09-25 06:42:00,
2013-09-25 01:52:00,81.0,76.0,29.76,SE,130,5.0,6.0,86,-99.99,,,-99.99,,2013-09-25 06:52:00,
2013-09-25 02:00:00,81.0,77.0,29.75,East,90,8.0,9.0,89,-99.99,,,-99.99,,2013-09-25 07:00:00,
2013-09-25 02:42:00,81.0,77.0,29.75,East,90,8.0,9.0,89,-99.99,,,-99.99,,2013-09-25 07:42:00,
2013-09-25 02:52:00,81.0,77.0,29.75,East,90,8.0,9.0,89,-99.99,,,-99.99,,2013-09-25 07:52:00,
2013-09-25 03:00:00,79.0,76.0,29.75,ENE,60,10.0,11.0,91,-99.99,,,-99.99,,2013-09-25 08:00:00,
2013-09-25 03:42:00,79.0,76.0,29.75,ENE,60,10.0,11.0,91,-99.99,,,-99.99,,2013-09-25 08:42:00,
2013-09-25 03:52:00,79.0,76.0,29.75,ENE,60,10.0,11.0,91,-99.99,,,-99.99,,2013-09-25 08:52:00,
2013-09-25 04:00:00,80.0,76.0,29.75,NE,50,5.0,6.0,88,-99.99,,,-99.99,,2013-09-25 09:00:00,
2013-09-25 04:43:00,80.0,76.0,29.75,NE,50,5.0,6.0,88,-99.99,,,-99.99,,2013-09-25 09:43:00,
2013-09-25 04:53:00,80.0,76.0,29.75,NE,50,5.0,6.0,88,-99.99,,,-99.99,,2013-09-25 09:53:00,
2013-09-25 05:00:00,78.0,76.0,29.75,North,10,9.0,10.0,91,-99.99,,,-99.99,,2013-09-25 10:00:00,
2013-09-25 05:42:00,78.0,76.0,29.75,North,10,9.0,10.0,91,-99.99,,,-99.99,,2013-09-25 10:42:00,
2013-09-25 05:52:00,78.0,76.0,29.75,North,10,9.0,10.0,91,-99.99,,,-99.99,,2013-09-25 10:52:00,
2013-09-25 06:00:00,78.0,76.0,29.76,North,10,6.0,7.0,92,-99.99,,,-99.99,,2013-09-25 11:00:00,
2013-09-25 06:42:00,78.0,76.0,29.76,North,10,6.0,7.0,92,-99.99,,,-99.99,,2013-09-25 11:42:00,
2013-09-25 06:52:00,78.0,76.0,29.76,North,10,6.0,7.0,92,-99.99,,,-99.99,,2013-09-25 11:52:00,
2013-09-25 07:00:00,75.0,74.0,29.78,NW,320,11.0,13.0,95,-99.99,,,-99.99,,2013-09-25 12:00:00,
2013-09-25 07:42:00,75.0,74.0,29.78,NW,320,11.0,13.0,95,-99.99,,,-99.99,,2013-09-25 12:42:00,
2013-09-25 07:52:00,75.0,74.0,29.78,NW,320,11.0,13.0,95,-99.99,,,-99.99,,2013-09-25 12:52:00,
2013-09-25 08:00:00,74.0,73.0,29.80,NW,320,7.0,8.0,97,-99.99,,,-99.99,,2013-09-25 13:00:00,
2013-09-25 08:42:00,74.0,73.0,29.80,NW,320,7.0,8.0,97,-99.99,,,-99.99,,2013-09-25 13:42:00,
2013-09-25 08:52:00,74.0,73.0,29.80,NW,320,7.0,8.0,97,-99.99,,,-99.99,,2013-09-25 13:52:00,
2013-09-25 09:00:00,74.0,72.0,29.80,NNW,330,9.0,10.0,93,-99.99,,,-99.99,,2013-09-25 14:00:00,
2013-09-25 09:42:00,74.0,72.0,29.80,NNW,330,9.0,10.0,93,-99.99,,,-99.99,,2013-09-25 14:42:00,
2013-09-25 09:52:00,74.0,72.0,29.80,NNW,330,9.0,10.0,93,-99.99,,,-99.99,,2013-09-25 14:52:00,
2013-09-25 10:00:00,74.0,72.0,29.82,NNW,330,9.0,10.0,92,-99.99,,,-99.99,,2013-09-25 15:00:00,
2013-09-25 10:43:00,74.0,72.0,29.82,NNW,330,9.0,10.0,92,-99.99,,,-99.99,,2013-09-25 15:43:00,
2013-09-25 10:53:00,74.0,72.0,29.82,NNW,330,9.0,10.0,92,-99.99,,,-99.99,,2013-09-25 15:53:00,
2013-09-25 11:00:00,75.0,72.0,29.82,NNW,330,10.0,13.0,89,-99.99,,,-99.99,,2013-09-25 16:00:00,
2013-09-25 11:42:00,75.0,72.0,29.82,NNW,330,10.0,13.0,89,-99.99,,,-99.99,,2013-09-25 16:42:00,
2013-09-25 11:53:00,75.0,72.0,29.82,NNW,330,10.0,13.0,89,-99.99,,,-99.99,,2013-09-25 16:53:00,
2013-09-25 12:00:00,77.0,72.0,29.81,North,10,9.0,10.0,84,-99.99,,,-99.99,,2013-09-25 17:00:00,
2013-09-25 12:42:00,77.0,72.0,29.81,North,10,9.0,10.0,84,-99.99,,,-99.99,,2013-09-25 17:42:00,
2013-09-25 12:52:00,77.0,72.0,29.81,North,10,9.0,10.0,84,-99.99,,,-99.99,,2013-09-25 17:52:00,
2013-09-25 13:00:00,77.0,71.0,29.80,North,10,6.0,7.0,81,-99.99,,,-99.99,,2013-09-25 18:00:00,
2013-09-25 13:42:00,77.0,71.0,29.80,North,10,6.0,7.0,81,-99.99,,,-99.99,,2013-09-25 18:42:00,
2013-09-25 13:52:00,77.0,71.0,29.80,North,10,6.0,7.0,81,-99.99,,,-99.99,,2013-09-25 18:52:00,
2013-09-25 14:00:00,78.0,71.0,29.78,NNE,20,5.0,7.0,81,-99.99,,,-99.99,,2013-09-25 19:00:00,
2013-09-25 14:42:00,78.0,71.0,29.78,NNE,20,5.0,7.0,81,-99.99,,,-99.99,,2013-09-25 19:42:00,
2013-09-25 14:52:00,78.0,71.0,29.78,NNE,20,5.0,7.0,81,-99.99,,,-99.99,,2013-09-25 19:52:00,
2013-09-25 15:00:00,78.0,72.0,29.77,North,10,6.0,7.0,81,-99.99,,,-99.99,,2013-09-25 20:00:00,
2013-09-25 15:42:00,78.0,72.0,29.77,North,10,6.0,7.0,81,-99.99,,,-99.99,,2013-09-25 20:42:00,
2013-09-25 15:52:00,78.0,72.0,29.77,North,10,6.0,7.0,81,-99.99,,,-99.99,,2013-09-25 20:52:00,
2013-09-25 16:00:00,79.0,73.0,29.76,North,350,5.0,6.0,81,-99.99,,,-99.99,,2013-09-25 21:00:00,
2013-09-25 16:44:00,79.0,73.0,29.76,North,350,5.0,6.0,81,-99.99,,,-99.99,,2013-09-25 21:44:00,
2013-09-25 16:54:00,79.0,73.0,29.76,North,350,5.0,6.0,81,-99.99,,,-99.99,,2013-09-25 21:54:00,
2013-09-25 17:00:00,80.0,73.0,29.76,North,10,3.0,3.0,79,-99.99,,,-99.99,,2013-09-25 22:00:00,
2013-09-25 17:42:00,80.0,73.0,29.76,North,10,3.0,3.0,79,-99.99,,,-99.99,,2013-09-25 22:42:00,
2013-09-25 17:53:00,80.0,73.0,29.76,North,10,3.0,3.0,79,-99.99,,,-99.99,,2013-09-25 22:53:00,
2013-09-25 18:00:00,81.0,74.0,29.77,South,180,2.0,2.0,79,-99.99,,,-99.99,,2013-09-25 23:00:00,
2013-09-25 18:42:00,81.0,74.0,29.77,South,180,2.0,2.0,79,-99.99,,,-99.99,,2013-09-25 23:42:00,
2013-09-25 18:52:00,81.0,74.0,29.77,South,180,2.0,2.0,79,-99.99,,,-99.99,,2013-09-25 23:52:00,
2013-09-25 19:00:00,80.0,74.0,29.78,SSW,200,3.0,5.0,82,-99.99,,,-99.99,,2013-09-26 00:00:00,
2013-09-25 19:42:00,80.0,74.0,29.78,SSW,200,3.0,5.0,82,-99.99,,,-99.99,,2013-09-26 00:42:00,
2013-09-25 19:52:00,80.0,74.0,29.78,SSW,200,3.0,5.0,82,-99.99,,,-99.99,,2013-09-26 00:52:00,
2013-09-25 20:00:00,80.0,75.0,29.79,SSW,200,3.0,5.0,84,-99.99,,,-99.99,,2013-09-26 01:00:00,
2013-09-25 20:42:00,80.0,75.0,29.79,SSW,200,3.0,5.0,84,-99.99,,,-99.99,,2013-09-26 01:42:00,
2013-09-25 20:52:00,80.0,75.0,29.79,SSW,200,3.0,5.0,84,-99.99,,,-99.99,,2013-09-26 01:52:00,
2013-09-25 21:00:00,80.0,74.0,29.80,SW,230,3.0,5.0,82,-99.99,,,-99.99,,2013-09-26 02:00:00,
2013-09-25 21:52:00,80.0,74.0,29.80,SW,230,3.0,5.0,82,-99.99,,,-99.99,,2013-09-26 02:52:00,
2013-09-25 22:00:00,80.0,74.0,29.81,SW,230,2.0,2.0,82,-99.99,,,-99.99,,2013-09-26 03:00:00,
2013-09-25 22:44:00,80.0,74.0,29.81,SW,230,2.0,2.0,82,-99.99,,,-99.99,,2013-09-26 03:44:00,
2013-09-25 22:54:00,80.0,74.0,29.81,SW,230,2.0,2.0,82,-99.99,,,-99.99,,2013-09-26 03:54:00,
2013-09-25 23:00:00,80.0,74.0,29.82,WSW,250,5.0,5.0,80,-99.99,,,-99.99,,2013-09-26 04:00:00,
2013-09-25 23:44:00,80.0,74.0,29.82,WSW,250,5.0,5.0,80,-99.99,,,-99.99,,2013-09-26 04:44:00,
2013-09-25 23:54:00,80.0,74.0,29.82,WSW,250,5.0,5.0,80,-99.99,,,-99.99,,2013-09-26 04:54:00,